Terminal Aerodrome Forecast
Issued by NWS Shreveport, LA

Home | Current Version | Previous Version | Text Only | Print | Product List | Glossary On
Versions: 1 2 3 4 5 6 7 8 9 10 11 12 13 14 15 16 17 18 19 20 21 22 23 24 25 26 27 28
465
FTUS44 KSHV 231630 AAB
TAFTXK
TAF AMD
KTXK 231630Z 2316/2412 09004KT 6SM BR OVC015
      TEMPO 2316/2320 4SM -SHRA OVC010
     FM232000 14006KT 5SM BR OVC015
      TEMPO 2320/2324 4SM -SHRA OVC010
     FM240000 12005KT 6SM -SHRA OVC007
     FM240900 16006KT 3SM -DZ OVC005=

USA.gov is the U.S. government's official web portal to all federal, state and local government web resources and services.